Weather Roundup
Issued by NWS

Home | Current Version | Previous Version | Text Only | Print | Product List | Glossary On
Versions: 1 2 3 4 5 6 7 8 9 10 11 12 13 14 15 16 17 18 19 20 21 22 23 24 25 26 27 28 29 30 31 32 33 34 35 36 37 38 39 40 41 42 43 44 45 46 47 48 49 50
000
NZUS93 KARX 221659
HRRWXR

CURRENT HOURLY OBSERVATIONS ACROSS
MUCH OF THE UPPER MISSISSIPPI VALLEY
NATIONAL WEATHER SERVICE LA CROSSE WI
1200 PM CDT MON SEP 22 2014


...SOUTHEAST MINNESOTA...


CITY           SKY/WX    TMP DP  RH WIND       PRES   REMARKS
ROCHESTER      SUNNY     63  51  65 W8        30.29F
ROCHESTER/MAYO FAIR      61  49  63 W8        30.28F
WINONA         MOSUNNY   63  50  63 NW10      30.26F
AUSTIN         SUNNY     63  52  67 SW5       30.28F
ALBERT LEA     SUNNY     64  50  59 NW6       30.28F
DODGE CENTER   SUNNY     63  52  67 W8        30.28F
PRESTON        SUNNY     62  55  77 W10       30.29S
OWATONNA       SUNNY     64  48  55 NW5       30.27F
FARIBAULT      SUNNY     68  48  49 W7        30.27F
$$

...ELSEWHERE IN MINNESOTA...


CITY           SKY/WX    TMP DP  RH WIND       PRES   REMARKS
MINNEAPOLIS    MOSUNNY   65  51  60 W6        30.26F
INTNL FALLS    SUNNY     66  51  58 W13G18    30.10F
DULUTH         SUNNY     65  50  58 W15       30.18F
RED WING       SUNNY     64  52  63 W9        30.25F
REDWOOD FALLS  SUNNY     68  49  50 W8        30.24F
MANKATO        SUNNY     64  48  55 W8        30.27F
WORTHINGTON    SUNNY     66  46  48 SW7       30.28F
FAIRMONT       SUNNY     66  46  48 SW5       30.28F
$$

...SOUTHWEST WISCONSIN...


CITY           SKY/WX    TMP DP  RH WIND       PRES   REMARKS
LA CROSSE      SUNNY     67  49  52 SW7       30.26F
PRAIRIE DU CHI SUNNY     62  46  56 SW3       30.30F
BOSCOBEL       SUNNY     65  48  54 SW8       30.29F
LONE ROCK      NOT AVBL
PLATTEVILLE    SUNNY     62  44  51 SW7       30.31F
FORT MC COY    SUNNY     62  48  59 W7        30.28S
VIROQUA        FAIR      63  47  56 W9        30.29S
WIS DELLS      SUNNY     62  43  50 W7        30.28S
$$

...ELSEWHERE IN WISCONSIN...


CITY           SKY/WX    TMP DP  RH WIND       PRES   REMARKS
MILWAUKEE      SUNNY     62  42  47 VRB6      30.27F
MADISON        SUNNY     63  43  48 VRB7      30.28S
GREEN BAY      SUNNY     64  47  53 VRB7      30.23S
EAU CLAIRE     PTSUNNY   63  50  63 NW9       30.25F
BLACK RVR FLS  FAIR      65  47  52 W10G16    30.26S
MEDFORD        CLOUDY    58  49  71 W7        30.24F
WAUSAU         CLOUDY    62  46  55 W14       30.22F
WIS RAPIDS     SUNNY     65  46  50 W10       30.26F
MARSHFIELD     CLOUDY    63  49  60 W9        30.24F
RICE LAKE      MOSUNNY   60  50  68 W9        30.26S
$$

...NORTHEAST IOWA...


CITY           SKY/WX    TMP DP  RH WIND       PRES   REMARKS
WATERLOO       SUNNY     66  47  50 VRB5      30.29F
DUBUQUE        SUNNY     62  43  49 SW6       30.31F
DECORAH        SUNNY     63  48  59 W9        30.29S
MASON CITY     SUNNY     65  52  62 SW8       30.30F
CHARLES CITY   SUNNY     64  50  59 VRB7      30.30F
OELWEIN        SUNNY     63  48  59 W10       30.31F
$$

...ELSEWHERE IN IOWA...


CITY           SKY/WX    TMP DP  RH WIND       PRES   REMARKS
DES MOINES     MOSUNNY   67  50  54 CALM      30.31F
IOWA CITY      SUNNY     64  48  56 CALM      30.33F
FORT DODGE     SUNNY     66  52  59 SW6       30.31F
MARSHALLTOWN   SUNNY     65  48  54 SW5       30.30F
CEDAR RAPIDS   SUNNY     64  48  56 VRB5      30.31F
$$

...NORTHERN ILLINOIS...


CITY           SKY/WX    TMP DP  RH WIND       PRES   REMARKS
CHICAGO-OHARE  MOSUNNY   55  41  59 NE5       30.29S
DUPAGE         SUNNY     62  42  47 VRB3      30.29F
CHICAGO-MIDWAY MOSUNNY   63  44  50 CALM      30.29S
MOLINE         SUNNY     64  44  48 VRB3      30.32F
ROCKFORD       SUNNY     62  42  47 S3        30.33S
STERLING       SUNNY     64  41  42 NW3       30.31F
PEORIA         SUNNY     64  43  46 VRB3      30.31F
$$

NOTE: "FAIR" INDICATES FEW OR NO CLOUDS BELOW 12,000 FEET WITH NO
SIGNIFICANT WEATHER AND/OR OBSTRUCTIONS TO VISIBILITY. WIND
SPEEDS ARE IN MILES-PER-HOUR.



USA.gov is the U.S. government's official web portal to all federal, state and local government web resources and services.